SCD 1

Last updated on Fri Oct 04 2024 00:02:24 GMT+0000 (Coordinated Universal Time)

1 22490U 93009B 24277.47853551 .00001906 00000+0 47525-3 0 9999 2 22490 24.9693 84.7576 0042572 40.5478 347.5352 14.45476935671042
UTC large
Height (km)
Speed (km/s)
/
Latitude / Longitude
Inclination (degrees)
Orbital Period (minutes)
Azimuth
Elevation
Range (km)
Doppler Factor

Next 0 passes for location: London (51.5072 / 0.1276)

Sorry there are no passes over London.